Regional Weather Roundup
Issued by NWS Wakefield, VA

Home | Current Version | Previous Version | Graphics & Text | Print | Product List | Glossary On
Versions: 1 2 3 4 5 6 7 8 9 10 11 12 13 14 15 16 17 18 19 20 21 22 23 24 25 26 27 28 29 30 31 32 33 34 35 36 37 38 39 40 41 42 43 44 45 46 47 48 49 50
000
ASUS41 KAKQ 282210
RWRAKQ

REGIONAL WEATHER ROUNDUP
NATIONAL WEATHER SERVICE WAKEFIELD VA
600 PM EDT THU AUG 28 2014

Note: "fair" indicates few or no clouds below 12,000 feet with no
significant weather and/or obstructions to visibility. * = Denotes
station may not report precipitation (e.g., rain,snow,etc.),
thunder or fog.

VAZ042-051-052>054-056-282300-
NORTHERN VIRGINIA

CITY           SKY/WX    TMP DP  RH WIND       PRES   REMARKS
WASH NATIONAL  MOSUNNY   85  55  35 N12G17    29.98R
DULLES         MOSUNNY   81  54  39 N9G17     29.99R
FORT BELVOIR   SUNNY     84  60  43 NW6       29.98R
QUANTICO       MOSUNNY   85  61  44 NE8       29.97S
FREDERICKSBRG* SUNNY     86  61  42 N6        29.95S
STAFFORD*      SUNNY     83  62  49 NE6       30.01R
WARRENTON      SUNNY     85  66  53 N7        29.97S
CULPEPER*      SUNNY    N/A N/A N/A N6        29.97S
MANASSAS*      SUNNY     84  61  45 N12       29.98R
LEESBURG*      SUNNY     81  55  41 N9        30.01R
WINCHESTER     SUNNY     81  46  30 NW8       30.01R
$$

VAZ048-049-060>072-079>083-282300-
CENTRAL AND SOUTH CENTRAL VIRGINIA...AND NORTH CENTRAL NORTH CAROLINA

CITY           SKY/WX    TMP DP  RH WIND       PRES   REMARKS
RICHMOND       PTSUNNY   90  58  33 VRB6      29.95R
CHESTERFIELD*  PTCLDY    90  63  40 CALM      29.96S
HANOVER        MOSUNNY   88  63  43 VRB3      29.97R
TAPPAHANNOCK*  SUNNY     86  51  29 NW5       29.97R
CHARLOTTSVILLE SUNNY     86  63  45 NE7       29.97R
ORANGE*        SUNNY     86  59  39 N3        29.98S
LOUISA*        SUNNY     86  66  51 N5        29.96S
FARMVILLE*     MOSUNNY   90  66  45 S7        29.93S
SOUTH HILL*    MOSUNNY   90  72  55 CALM      30.01S HX  96
ROANOKE RAPIDS CLEAR     86  70  58 CALM      29.95S
RALEIGH        MOSUNNY   88  71  57 CALM      29.96S
$$

VAZ088>098-282300-
SOUTHEAST VIRGINIA

CITY           SKY/WX    TMP DP  RH WIND       PRES   REMARKS
NORFOLK        SUNNY     83  70  64 NE5       29.95R
VIRGINIA BEACH MOSUNNY   85  66  53 N9        29.95R
NORFOLK NAVAL  PTSUNNY   84  70  62 E6        29.97R
WEST POINT*    SUNNY     89  53  28 NE5       29.96R
NEWPORT NEWS   SUNNY     91  66  43 N5        29.95R
LANGLEY AFB    SUNNY     83  72  68 E6        29.95R
FORT EUSTIS    SUNNY     88  62  41 VRB3      29.94R
WILLIAMSBURG*  SUNNY     91  66  43 N5        29.96R
FRANKLIN*      PTSUNNY   88  70  55 N3        29.95R
WAKEFIELD      SUNNY     89  68  49 CALM      29.95R
$$

VAZ020-022-025-037-045-282300-
WESTERN AND SOUTHWEST VIRGINIA

CITY           SKY/WX    TMP DP  RH WIND       PRES   REMARKS
STAUNTON*      SUNNY     85  58  39 E8        30.02R
HOT SPRINGS VA SUNNY     74  53  47 NW8       30.18R
LYNCHBURG      SUNNY     85  70  60 SW6       30.00R
DANVILLE       MOSUNNY   89  69  51 VRB3      29.97S
MARTINSVILLE   SUNNY     91  68  47 CALM      30.02R
ROANOKE        MOSUNNY   87  64  46 W13       30.02S
BLACKSBURG     SUNNY     82  66  57 NW5       30.10R
DUBLIN*        SUNNY     82  67  59 NW3       30.09S
MARION*        SUNNY    N/A N/A N/A NW6       30.14R
HILLSVILLE*    PTSUNNY   81  65  57 N9        30.11S
RICHLANDS*     PTCLDY    83  66  56 NW3       30.13R
WISE*          MOSUNNY   81  64  57 N5        30.14S
ABINGDON*      SUNNY     85  65  50 N6        30.08F
$$

MDZ021>025-VAZ099-100-282300-
SOUTHERN MARYLAND AND THE DELMARVA PENINSULA

CITY           SKY/WX    TMP DP  RH WIND       PRES   REMARKS
PATUXENT RIVER MOSUNNY   81  63  54 NE12      29.96R
BAY BRIDGE APT   N/A     81  57  44 NW6       29.97R
LEONARDTOWN    SUNNY     81  55  41 N3        29.98R
DOVER          SUNNY     80  57  46 NW15      29.95R
GEORGETOWN     MOSUNNY   80  61  52 VRB6      29.96R
EASTON         NOT AVBL
CAMBRIDGE      MOSUNNY   81  59  47 N7        29.96R
SALISBURY      MOSUNNY   84  62  47 NW8       29.95R
OCEAN CITY     SUNNY     82  60  47 NW10G17   29.94R
WALLOPS ISLAND SUNNY     84  64  50 N7        29.95R
ACCOMACK*      NOT AVBL
$$

NCZ012>017-030>032-282300-
EASTERN NORTH CAROLINA

CITY           SKY/WX    TMP DP  RH WIND       PRES   REMARKS
ELIZABETH CITY PTSUNNY   82  73  74 E8        29.96R
AHOSKIE*       SUNNY     85  71  62 CALM      29.95S
EDENTON*       MOSUNNY   87  72  60 W3        29.95R
CURRITUCK*     MOSUNNY   81  69  67 E3        29.97R
KILL DEVIL HLS PTSUNNY   78  69  73 E5        29.96R
MANTEO         MOSUNNY   78  69  73 E9        29.97R
CAPE HATTERAS  SUNNY     82  70  66 SW10      29.96R
GOLDSBORO      SUNNY     91  76  62 NW6       29.93S HX 102
WASHINGTON     SUNNY     88  71  56 CALM      29.95S
GREENVILLE     SUNNY     88  72  58 W3        29.98R
NEW BERN       SUNNY     91  69  48 SW5       29.96R HX  96
WILMINGTON     SUNNY     90  65  43 W8        29.96R
$$

VAZ048-282300-
ELSEWHERE

CITY           SKY/WX    TMP DP  RH WIND       PRES   REMARKS
HARRISBURG PA  MOSUNNY   77  50  38 NW12      30.00R
BALTIMORE      MOSUNNY   80  54  40 NW8       29.98R
ANNAPOLIS      SUNNY     81  57  43 NW9       29.97R
ANDREWS AFB    SUNNY     82  55  40 NW9       29.98R
WILMINGTON DE  SUNNY     79  52  38 N9        29.98R
PHILADELPHIA   MOSUNNY   79  51  37 NW12      29.97R
WILDWOOD NJ*   SUNNY     79  55  44 NW10G17   29.96R
ATLANTIC CITY  SUNNY     79  55  43 NW13      29.94R
HENDERSON NC   SUNNY     87  69  54 CALM      29.97S
GREENSBORO     MOSUNNY   90  67  46 NW6       29.98S
ROCKY MOUNT    SUNNY     87  72  60 NW5       29.95S
FAYETTEVILLE   MOSUNNY   93  67  42 SE6       29.94R HX  96
CHARLOTTE      MOSUNNY   89  65  44 W6        29.99S
$$

VAZ100-282300-
MARINE

STATION/POSITION TIME  TEMP    WIND        PRES    WAVE   SWELL
                       AIR SEA DIR/SP/G            HT/PER HT/PER
                 (UTC) (F)     (DEG/KT/KT) (MB)    (FT/S) (FT/S)
44066 TX TWR #4  2200   74 73  300/ 12/ 14 1012.5R   6/13   5/13
CAPE MAY NJ      2200   80 81  320/  8/ 14 1013.7R
LEWES DE         2200   77 78   10/ 14/ 18 1014.0R
15NM E FENWICK I 2200   76 74              1013.5R   5/11
OCEAN-CITY-INLET 2200   81 78  340/ 12/ 15 1013.5R
WACHAPREAGUE VA  2200   82 83  340/  5/  9 1014.0R
THOMAS POINT MD  2200   80 79  330/ 13/ 13 1015.6R
GOOSES REEF MD   2200   80     360/ 16/ 17 1015.0R
COVE POINT MD    2200   79      30/  5/  6 1014.6R
SOLOMONS ISLAND  2200      81                N/A
BISHOPS HEAD MD  2200   82 81  320/ 12/ 15 1014.1R
PINEY POINT MD   2200          320/ 14/ 15   N/A
POTOMAC MD       2200   82     320/ 12/ 16 1013.7R
CAMBRIDGE MD     2200   80 81  350/ 10/ 12 1014.3R
LEWISETTA VA     2200   83 80  310/ 11/ 16 1014.3R
RAPPAHANNOCK LGT 2200           10/  6/  7 1014.7R
STINGRAY PT      2200   80      60/  6/  8   N/A
YORK RVR RNG VA  2200   79     130/  5/  6 1013.9R
YORKTOWN VA      2200   83 80   60/  4/  6 1013.9R
JAMESTOWN VA     2200   85     330/  2/  4   N/A
DOMINION TERM VA 2200   81     110/  2/  7 1014.4R
KIPTOPEKE VA     2200      81  330/  3/  3   N/A
CHES BAY BRIDGE  2200   79 79   10/  2/  2 1014.0R
CAPE HENRY VA    2200   80     340/  2/  3 1013.2R
CHESAPEAKE LGHT  2100   78      60/  2/  2 1014.9R
WILLOUBY STN VA  2200   78     100/  6/  6 1013.1S
S CRANEY ISL VA  2200           20/  5/  5 1013.9S
CAPE HENRY BUOY  2200      79                N/A     3/11   2/11
1ST LANDING BUOY 2200   81     360/  4/  4 1014.1R
CAPE CHARLES BUO 2200      79                N/A     3/11   3/11
OFFSHORE WE BUOY 2200      78                N/A     4/11   3/11
64NM E OF VA BCH 2200   77 76  320/  2/  4 1014.2R   4/11   3/11
DUCK PIER NC     2200   78 78   80/  6/  7 1013.9S
44056 DUCK FRF   2200                        N/A     3/10   2/11
OREGON INLET NC  2200   78 78   50/  9/ 11 1014.8R
HATTERAS NC      2200   83 79  220/  9/ 13 1014.9S
DIAMOND SHLS NC  2200   82     230/ 12/ 14 1014.4R   5/10   5/10
CAPE LOOKOUT NC  2100   82     240/ 10/ 12 1014.6S
$$



USA.gov is the U.S. government's official web portal to all federal, state and local government web resources and services.